GFSMW_prec_pwat_108.txt.gz
Precipitable_Water
0.16 0.19 0.21 0.23 0.25 0.29 0.32 0.34 0.38 0.48 0.68 0.79 0.84 0.94 1.10 1.13 1.12 1.14 1.17 1.23 1.26 1.20 1.17 1.16 1.19 1.22 1.14 1.13 1.16 1.16 1.12 1.16 1.22 1.08 1.04 1.13 1.24 1.33 1.47 1.49 1.48 1.50 1.52
0.22 0.27 0.32 0.29 0.27 0.25 0.28 0.29 0.33 0.38 0.60 0.77 0.85 0.90 0.92 1.16 1.09 1.09 1.17 1.19 1.29 1.33 1.23 1.17 1.18 1.22 1.20 1.19 1.16 1.15 1.09 1.16 1.21 1.00 0.97 0.85 1.03 1.32 1.39 1.49 1.46 1.45 1.52
0.26 0.32 0.37 0.40 0.42 0.41 0.41 0.39 0.32 0.35 0.49 0.74 0.88 0.96 1.04 1.16 1.10 1.07 1.06 1.14 1.21 1.38 1.36 1.32 1.29 1.29 1.29 1.20 1.20 1.18 1.12 1.07 1.16 1.15 0.96 0.79 0.77 1.06 1.30 1.35 1.43 1.45 1.47
0.43 0.42 0.40 0.42 0.44 0.47 0.51 0.51 0.51 0.42 0.50 0.65 0.78 0.86 0.83 0.79 0.90 0.96 0.96 1.04 1.18 1.33 1.25 1.25 1.32 1.31 1.35 1.26 1.24 1.22 1.18 1.16 1.06 1.11 1.10 1.08 0.96 0.96 0.99 1.26 1.35 1.48 1.44
0.48 0.47 0.46 0.45 0.48 0.51 0.53 0.54 0.54 0.53 0.50 0.67 0.75 0.82 0.84 0.84 0.83 0.92 0.97 0.99 1.10 1.34 1.28 1.24 1.26 1.28 1.26 1.30 1.24 1.18 1.18 1.19 1.14 1.06 0.99 1.05 0.96 1.09 1.08 1.03 1.17 1.34 1.43
0.53 0.55 0.56 0.56 0.55 0.55 0.55 0.57 0.56 0.57 0.55 0.70 0.77 0.81 0.82 0.81 0.83 0.89 0.90 0.97 1.04 1.19 1.29 1.25 1.26 1.22 1.18 1.22 1.21 1.20 1.18 1.19 1.22 1.14 1.06 0.99 0.85 0.93 1.04 1.08 1.17 1.15 1.27
0.57 0.57 0.58 0.59 0.62 0.60 0.58 0.60 0.64 0.66 0.68 0.76 0.85 0.89 0.89 0.90 0.83 0.91 0.94 0.92 0.99 1.11 1.13 1.20 1.19 1.17 1.10 1.21 1.23 1.17 1.17 1.22 1.20 1.14 1.10 1.07 0.99 1.02 1.10 1.16 1.18 1.13 1.22
0.57 0.57 0.61 0.63 0.68 0.67 0.68 0.69 0.73 0.79 0.81 0.93 0.91 0.98 0.98 1.01 1.01 1.02 1.02 1.04 1.06 1.12 1.19 1.18 1.18 1.18 1.11 1.20 1.20 1.19 1.19 1.24 1.23 1.17 1.13 1.05 1.04 1.04 1.08 1.10 1.16 1.10 1.14
0.55 0.56 0.65 0.71 0.77 0.76 0.77 0.81 0.83 0.84 0.90 0.99 1.06 1.04 1.06 1.05 1.05 1.08 1.11 1.12 1.18 1.29 1.24 1.20 1.16 1.15 1.13 1.16 1.19 1.16 1.16 1.26 1.22 1.15 1.06 1.04 1.05 1.06 1.08 1.16 1.25 1.17 1.01
0.56 0.60 0.67 0.71 0.81 0.80 0.87 0.87 0.87 0.87 0.88 0.95 1.00 1.04 1.08 1.07 1.14 1.13 1.08 1.08 1.16 1.22 1.23 1.13 1.11 1.11 1.15 1.17 1.21 1.17 1.27 1.25 1.14 0.99 1.03 1.06 1.13 1.09 1.14 1.15 1.30 1.27 1.20
0.57 0.62 0.66 0.70 0.77 0.86 0.89 0.88 0.88 0.88 0.91 0.92 0.96 1.06 1.07 1.15 1.13 1.11 1.08 1.11 1.18 1.21 1.19 1.18 1.10 1.13 1.17 1.21 1.19 1.22 1.19 1.03 0.95 0.98 0.99 1.04 1.13 1.15 1.15 1.19 1.24 1.27 1.24
0.57 0.61 0.66 0.71 0.77 0.80 0.85 0.86 0.91 0.87 0.88 0.94 1.02 1.11 1.19 1.15 1.09 1.08 1.13 1.22 1.22 1.22 1.27 1.22 1.20 1.17 1.18 1.18 1.17 1.09 1.07 1.01 0.95 0.99 1.06 1.09 1.16 1.22 1.20 1.25 1.23 1.27 1.26
0.56 0.59 0.65 0.69 0.73 0.77 0.79 0.81 0.87 0.92 0.95 0.98 1.00 1.03 1.08 1.13 1.13 1.16 1.17 1.23 1.22 1.29 1.36 1.28 1.15 1.13 1.14 1.15 1.14 1.08 1.03 0.99 1.03 1.08 1.06 1.15 1.20 1.16 1.20 1.27 1.22 1.26 1.28
0.50 0.55 0.59 0.62 0.66 0.71 0.76 0.82 0.85 0.89 0.95 0.95 1.00 1.01 1.06 1.13 1.18 1.25 1.25 1.30 1.36 1.32 1.30 1.19 1.12 1.14 1.14 1.10 1.05 1.03 0.95 0.96 1.00 1.05 1.08 1.15 1.20 1.19 1.29 1.27 1.28 1.26 1.25
0.42 0.44 0.49 0.54 0.59 0.64 0.70 0.77 0.80 0.86 0.93 0.93 0.92 0.99 1.08 1.11 1.18 1.25 1.31 1.30 1.30 1.27 1.18 1.12 1.14 1.13 1.08 1.05 1.02 0.96 0.93 0.94 0.96 1.00 1.06 1.15 1.25 1.24 1.33 1.29 1.28 1.29 1.25
0.41 0.43 0.46 0.50 0.56 0.60 0.66 0.70 0.75 0.82 0.87 0.90 0.95 0.99 1.03 1.08 1.11 1.14 1.15 1.18 1.12 1.10 1.07 1.08 1.07 1.03 1.05 1.06 1.01 0.96 0.95 0.94 0.92 0.97 1.10 1.29 1.31 1.30 1.35 1.37 1.35 1.35 1.27
0.41 0.42 0.44 0.48 0.53 0.55 0.61 0.68 0.70 0.77 0.81 0.85 0.91 0.93 0.98 0.94 1.03 1.05 1.05 1.04 1.01 0.99 0.98 0.95 0.98 1.00 1.01 0.98 1.01 1.01 0.96 0.94 0.93 0.95 1.05 1.24 1.31 1.33 1.32 1.32 1.33 1.32 1.33
0.43 0.44 0.45 0.46 0.49 0.54 0.56 0.62 0.67 0.71 0.76 0.78 0.83 0.84 0.91 0.91 0.95 0.94 0.95 0.92 0.94 0.94 0.92 0.92 0.95 0.95 0.95 0.98 1.01 1.04 0.99 0.91 0.92 0.96 1.04 1.10 1.17 1.20 1.26 1.24 1.20 1.19 1.22
0.44 0.45 0.47 0.48 0.49 0.52 0.56 0.55 0.57 0.62 0.67 0.71 0.74 0.79 0.82 0.85 0.87 0.90 0.86 0.88 0.88 0.88 0.90 0.90 0.90 0.91 0.91 0.94 0.98 0.98 0.96 0.89 0.89 0.93 1.01 1.04 1.10 1.13 1.16 1.14 1.11 1.11 1.11
0.45 0.45 0.48 0.49 0.48 0.50 0.51 0.51 0.52 0.53 0.55 0.61 0.66 0.71 0.73 0.78 0.77 0.81 0.83 0.82 0.83 0.82 0.83 0.82 0.82 0.85 0.88 0.91 0.94 0.95 0.93 0.88 0.86 0.88 0.91 0.98 1.02 1.07 1.08 1.05 1.05 1.03 1.03
0.43 0.45 0.46 0.45 0.46 0.49 0.49 0.47 0.48 0.47 0.51 0.54 0.56 0.60 0.63 0.67 0.72 0.73 0.75 0.75 0.76 0.75 0.76 0.78 0.78 0.76 0.79 0.84 0.87 0.88 0.89 0.82 0.80 0.82 0.81 0.86 0.91 0.96 1.01 1.01 1.02 1.00 1.00
0.40 0.41 0.40 0.41 0.43 0.44 0.44 0.43 0.44 0.48 0.49 0.50 0.51 0.52 0.54 0.56 0.58 0.61 0.65 0.68 0.68 0.67 0.69 0.72 0.74 0.75 0.76 0.77 0.79 0.81 0.81 0.81 0.76 0.74 0.79 0.81 0.85 0.85 0.88 0.93 0.92 0.94 0.94
0.36 0.36 0.36 0.36 0.37 0.38 0.38 0.36 0.38 0.41 0.42 0.43 0.45 0.48 0.50 0.52 0.54 0.54 0.54 0.55 0.57 0.59 0.60 0.61 0.63 0.66 0.69 0.71 0.72 0.74 0.74 0.75 0.74 0.72 0.73 0.77 0.79 0.80 0.81 0.80 0.80 0.82 0.81
0.32 0.31 0.29 0.27 0.26 0.26 0.26 0.26 0.27 0.29 0.28 0.28 0.30 0.32 0.35 0.39 0.44 0.48 0.50 0.51 0.51 0.50 0.50 0.52 0.54 0.58 0.60 0.63 0.65 0.66 0.68 0.68 0.68 0.68 0.69 0.71 0.71 0.74 0.73 0.73 0.73 0.75 0.74
0.26 0.24 0.21 0.20 0.19 0.19 0.19 0.20 0.20 0.20 0.19 0.19 0.20 0.21 0.22 0.23 0.25 0.27 0.30 0.34 0.41 0.46 0.47 0.48 0.49 0.49 0.51 0.55 0.58 0.59 0.60 0.60 0.62 0.63 0.63 0.63 0.63 0.63 0.65 0.65 0.66 0.67 0.67
0.19 0.18 0.17 0.16 0.16 0.16 0.15 0.16 0.17 0.16 0.15 0.14 0.14 0.14 0.14 0.16 0.18 0.19 0.21 0.25 0.26 0.29 0.32 0.35 0.41 0.48 0.51 0.53 0.54 0.54 0.55 0.56 0.57 0.55 0.54 0.54 0.54 0.54 0.56 0.56 0.57 0.58 0.58

GFSMW_prec_pwat_114.txt.gz
Precipitable_Water
0.40 0.44 0.45 0.47 0.45 0.43 0.42 0.42 0.43 0.57 0.55 0.59 0.78 0.90 1.02 1.10 1.14 1.30 1.32 1.24 1.24 1.25 1.23 1.24 1.29 1.18 1.11 1.14 1.15 1.17 1.15 1.15 1.22 1.12 1.10 1.15 1.19 1.21 1.21 1.20 1.16 1.19 1.27
0.38 0.40 0.43 0.47 0.48 0.45 0.45 0.45 0.45 0.47 0.54 0.57 0.57 0.81 0.91 0.96 1.01 1.11 1.27 1.38 1.29 1.21 1.20 1.17 1.25 1.19 1.12 1.17 1.14 1.11 1.08 1.14 1.19 1.03 1.04 0.86 0.98 1.11 1.22 1.21 1.16 1.18 1.29
0.36 0.38 0.40 0.44 0.48 0.46 0.45 0.45 0.46 0.49 0.51 0.56 0.59 0.55 0.86 0.93 0.92 0.96 1.09 1.17 1.20 1.13 1.11 1.12 1.15 1.26 1.20 1.13 1.17 1.16 1.10 1.01 1.12 1.20 1.03 0.86 0.73 0.91 1.15 1.16 1.14 1.15 1.23
0.40 0.40 0.41 0.43 0.46 0.48 0.49 0.48 0.48 0.48 0.51 0.55 0.55 0.53 0.57 0.72 0.80 0.89 0.94 0.93 1.07 1.13 1.12 1.13 1.13 1.18 1.28 1.23 1.17 1.22 1.19 1.16 0.99 1.18 1.24 1.12 1.03 0.83 0.84 1.08 1.07 1.11 1.12
0.40 0.39 0.41 0.44 0.50 0.52 0.51 0.50 0.51 0.50 0.54 0.56 0.58 0.59 0.50 0.66 0.82 0.85 0.86 0.88 0.93 1.08 1.15 1.14 1.17 1.14 1.20 1.26 1.27 1.25 1.23 1.20 1.14 1.12 1.16 1.15 1.10 1.04 0.92 0.88 0.93 1.00 1.09
0.41 0.42 0.44 0.45 0.49 0.54 0.55 0.55 0.52 0.53 0.56 0.56 0.59 0.62 0.64 0.60 0.72 0.74 0.79 0.83 0.90 0.90 1.04 1.19 1.19 1.17 1.15 1.15 1.27 1.37 1.34 1.30 1.30 1.29 1.26 1.13 1.04 0.94 0.95 0.94 0.92 0.88 1.00
0.41 0.43 0.42 0.43 0.47 0.52 0.58 0.60 0.59 0.57 0.61 0.60 0.56 0.61 0.64 0.67 0.76 0.73 0.79 0.84 0.89 0.88 0.92 1.10 1.15 1.15 1.15 1.19 1.36 1.40 1.31 1.25 1.23 1.29 1.23 1.22 1.13 1.08 1.03 0.98 0.97 0.91 0.95
0.41 0.43 0.44 0.46 0.47 0.52 0.55 0.59 0.59 0.59 0.65 0.65 0.59 0.63 0.67 0.73 0.77 0.85 0.85 0.90 0.92 0.97 0.99 1.01 1.12 1.15 1.16 1.18 1.32 1.31 1.27 1.27 1.31 1.28 1.25 1.20 1.14 1.14 1.10 1.00 1.00 0.88 0.87
0.43 0.44 0.47 0.49 0.50 0.51 0.54 0.60 0.64 0.70 0.72 0.69 0.63 0.66 0.72 0.81 0.82 0.91 0.97 0.97 1.04 1.04 1.07 1.10 1.15 1.17 1.15 1.18 1.25 1.31 1.27 1.31 1.32 1.30 1.22 1.17 1.14 1.18 1.16 1.15 1.12 0.97 0.78
0.44 0.46 0.51 0.54 0.56 0.57 0.59 0.64 0.69 0.75 0.72 0.69 0.65 0.66 0.72 0.83 0.96 1.02 0.99 1.04 1.13 1.13 1.12 1.11 1.16 1.16 1.15 1.19 1.23 1.28 1.30 1.32 1.34 1.32 1.21 1.18 1.17 1.20 1.20 1.20 1.20 1.11 0.95
0.46 0.51 0.55 0.60 0.61 0.61 0.63 0.68 0.77 0.77 0.76 0.72 0.70 0.70 0.78 0.92 1.06 1.04 1.09 1.14 1.20 1.23 1.22 1.17 1.14 1.14 1.16 1.17 1.19 1.25 1.28 1.29 1.27 1.23 1.14 1.13 1.20 1.17 1.18 1.27 1.20 1.05 0.97
0.48 0.51 0.56 0.59 0.61 0.63 0.67 0.70 0.74 0.80 0.81 0.80 0.81 0.84 0.91 1.05 1.15 1.14 1.13 1.20 1.21 1.29 1.26 1.25 1.20 1.19 1.20 1.23 1.26 1.24 1.35 1.30 1.26 1.11 1.14 1.13 1.21 1.17 1.23 1.19 1.00 0.96 1.01
0.47 0.50 0.55 0.57 0.60 0.63 0.65 0.68 0.73 0.79 0.85 0.86 0.87 0.87 0.89 1.01 1.04 1.10 1.16 1.25 1.31 1.32 1.32 1.31 1.29 1.31 1.31 1.32 1.29 1.36 1.37 1.34 1.28 1.21 1.12 1.14 1.19 1.12 1.08 1.06 1.04 1.05 1.06
0.46 0.49 0.52 0.55 0.59 0.60 0.64 0.69 0.73 0.79 0.84 0.89 0.88 0.91 0.96 1.00 0.99 1.01 1.07 1.12 1.15 1.24 1.22 1.24 1.21 1.20 1.18 1.19 1.23 1.25 1.26 1.22 1.25 1.20 1.18 1.13 1.07 1.09 1.06 1.04 1.00 1.02 1.02
0.46 0.48 0.50 0.54 0.57 0.59 0.63 0.69 0.73 0.78 0.81 0.83 0.88 0.90 0.94 0.96 0.96 0.98 0.97 1.03 1.07 1.13 1.16 1.15 1.11 1.07 1.09 1.12 1.19 1.24 1.24 1.21 1.16 1.16 1.08 1.06 1.07 1.04 1.04 0.96 0.96 1.01 0.97
0.45 0.47 0.50 0.50 0.53 0.57 0.60 0.65 0.69 0.73 0.77 0.80 0.82 0.84 0.88 0.90 0.91 0.92 0.95 1.00 1.05 1.07 1.08 1.06 1.03 1.04 1.08 1.12 1.18 1.20 1.15 1.13 1.10 0.98 0.96 1.01 1.02 1.01 0.97 0.93 0.94 0.98 0.98
0.44 0.45 0.44 0.46 0.49 0.53 0.56 0.58 0.63 0.70 0.73 0.74 0.77 0.80 0.84 0.86 0.88 0.92 0.93 0.94 0.95 0.99 0.98 0.98 1.00 1.02 1.04 1.07 1.10 1.13 1.10 1.06 0.97 0.93 0.94 0.95 0.96 0.95 0.92 0.90 0.89 0.93 0.98
0.43 0.44 0.45 0.46 0.49 0.51 0.53 0.56 0.59 0.64 0.69 0.70 0.72 0.76 0.78 0.79 0.84 0.85 0.86 0.88 0.87 0.92 0.92 0.91 0.92 0.96 0.97 1.01 1.03 1.06 1.04 0.98 0.95 0.94 0.94 0.93 0.91 0.92 0.93 0.91 0.86 0.90 0.91
0.42 0.42 0.43 0.43 0.45 0.47 0.50 0.52 0.53 0.55 0.56 0.60 0.65 0.68 0.72 0.73 0.76 0.77 0.78 0.82 0.82 0.85 0.86 0.87 0.87 0.87 0.89 0.93 0.95 0.95 0.92 0.89 0.90 0.94 0.94 0.88 0.91 0.92 0.94 0.92 0.85 0.82 0.81
0.38 0.37 0.38 0.38 0.37 0.39 0.41 0.41 0.43 0.46 0.48 0.52 0.54 0.57 0.60 0.62 0.65 0.69 0.71 0.75 0.77 0.77 0.78 0.80 0.80 0.81 0.82 0.86 0.87 0.89 0.88 0.87 0.87 0.87 0.88 0.88 0.88 0.91 0.92 0.89 0.85 0.77 0.75
0.32 0.30 0.27 0.25 0.25 0.27 0.27 0.26 0.28 0.31 0.35 0.37 0.41 0.45 0.49 0.53 0.56 0.57 0.59 0.63 0.66 0.69 0.71 0.72 0.74 0.76 0.77 0.80 0.81 0.82 0.82 0.80 0.78 0.78 0.79 0.83 0.83 0.84 0.86 0.86 0.84 0.79 0.79
0.24 0.22 0.19 0.18 0.20 0.20 0.19 0.18 0.19 0.22 0.24 0.25 0.25 0.27 0.30 0.33 0.37 0.40 0.42 0.46 0.49 0.51 0.54 0.56 0.58 0.63 0.66 0.70 0.71 0.72 0.74 0.74 0.72 0.73 0.73 0.74 0.75 0.78 0.80 0.81 0.83 0.81 0.80
0.19 0.19 0.16 0.15 0.16 0.16 0.16 0.14 0.15 0.16 0.15 0.17 0.17 0.19 0.20 0.21 0.22 0.23 0.24 0.26 0.28 0.30 0.32 0.35 0.37 0.41 0.50 0.55 0.58 0.60 0.62 0.62 0.63 0.66 0.67 0.71 0.72 0.73 0.74 0.75 0.75 0.75 0.75
0.17 0.16 0.15 0.14 0.13 0.14 0.14 0.14 0.14 0.15 0.13 0.13 0.14 0.15 0.15 0.16 0.16 0.17 0.18 0.17 0.18 0.19 0.20 0.21 0.22 0.25 0.28 0.31 0.35 0.41 0.49 0.54 0.54 0.55 0.59 0.62 0.64 0.65 0.66 0.67 0.68 0.68 0.68
0.16 0.15 0.14 0.13 0.13 0.14 0.14 0.14 0.14 0.14 0.13 0.13 0.13 0.13 0.14 0.14 0.15 0.15 0.14 0.14 0.15 0.15 0.15 0.16 0.17 0.17 0.17 0.20 0.23 0.25 0.27 0.31 0.35 0.42 0.48 0.50 0.52 0.53 0.57 0.59 0.59 0.60 0.61
0.14 0.13 0.13 0.12 0.12 0.12 0.13 0.13 0.14 0.14 0.13 0.13 0.13 0.13 0.13 0.13 0.13 0.13 0.14 0.14 0.13 0.13 0.14 0.15 0.15 0.16 0.16 0.17 0.18 0.19 0.20 0.23 0.26 0.27 0.28 0.31 0.36 0.42 0.45 0.47 0.49 0.52 0.53

GFSMW_prec_pwat_120.txt.gz
Precipitable_Water
0.44 0.50 0.51 0.53 0.52 0.53 0.52 0.53 0.51 0.53 0.56 0.55 0.58 0.68 0.67 0.92 1.35 1.37 1.44 1.62 1.45 1.37 1.28 1.27 1.28 1.26 1.19 1.22 1.28 1.21 1.13 1.17 1.23 1.18 1.21 1.21 1.24 1.22 1.20 1.22 1.22 1.21 1.26
0.45 0.48 0.49 0.50 0.49 0.48 0.48 0.48 0.51 0.52 0.54 0.53 0.54 0.58 0.64 0.72 0.94 1.27 1.29 1.35 1.47 1.46 1.42 1.34 1.27 1.23 1.24 1.25 1.30 1.24 1.09 1.15 1.25 1.07 1.09 1.00 1.12 1.16 1.20 1.22 1.25 1.26 1.29
0.43 0.43 0.44 0.45 0.47 0.47 0.48 0.49 0.52 0.52 0.53 0.55 0.55 0.52 0.55 0.60 0.64 0.85 1.05 1.32 1.27 1.43 1.52 1.52 1.41 1.31 1.34 1.25 1.22 1.20 1.09 1.01 1.18 1.21 1.04 0.93 0.82 0.97 1.15 1.14 1.21 1.25 1.25
0.43 0.43 0.42 0.43 0.44 0.46 0.50 0.51 0.51 0.51 0.53 0.55 0.54 0.54 0.49 0.46 0.57 0.69 0.88 1.23 1.27 1.27 1.39 1.50 1.60 1.54 1.52 1.41 1.23 1.15 1.07 1.19 1.04 1.21 1.20 1.16 1.07 0.86 0.82 1.09 1.18 1.25 1.26
0.45 0.43 0.42 0.42 0.44 0.45 0.47 0.49 0.51 0.51 0.53 0.55 0.57 0.55 0.52 0.51 0.53 0.60 0.72 0.86 1.15 1.19 1.26 1.37 1.48 1.58 1.59 1.64 1.30 1.20 1.08 1.10 1.11 1.14 1.10 1.10 1.12 1.14 0.96 0.93 1.05 1.26 1.26
0.42 0.42 0.43 0.43 0.43 0.46 0.47 0.47 0.47 0.49 0.52 0.52 0.54 0.55 0.53 0.52 0.49 0.49 0.55 0.71 0.89 1.03 1.15 1.19 1.28 1.46 1.48 1.48 1.83 1.32 1.25 1.08 1.07 1.14 1.18 1.08 1.03 1.03 1.01 0.95 1.00 1.04 1.16
0.40 0.40 0.40 0.40 0.42 0.44 0.46 0.48 0.48 0.47 0.49 0.50 0.52 0.55 0.57 0.56 0.53 0.52 0.49 0.54 0.70 0.88 1.05 1.14 1.11 1.21 1.37 1.36 1.33 1.43 1.37 1.17 1.05 1.06 1.07 1.16 1.17 1.24 1.19 1.13 1.02 1.01 1.17
0.38 0.40 0.41 0.41 0.43 0.44 0.46 0.48 0.48 0.48 0.49 0.48 0.48 0.49 0.55 0.57 0.57 0.55 0.55 0.51 0.54 0.72 0.95 1.09 1.23 1.21 1.25 1.34 1.29 1.28 1.28 1.26 1.13 1.10 1.09 1.09 1.13 1.19 1.14 1.10 1.09 1.07 1.08
0.42 0.42 0.43 0.44 0.44 0.46 0.49 0.51 0.52 0.53 0.53 0.51 0.50 0.51 0.53 0.55 0.57 0.60 0.61 0.58 0.55 0.56 0.74 1.00 1.10 1.28 1.26 1.26 1.30 1.15 1.11 1.18 1.18 1.13 1.14 1.09 1.17 1.26 1.22 1.27 1.21 1.02 0.88
0.43 0.44 0.45 0.45 0.49 0.52 0.56 0.58 0.59 0.58 0.60 0.59 0.58 0.56 0.59 0.63 0.66 0.68 0.65 0.66 0.60 0.58 0.64 0.81 0.89 1.11 1.40 1.20 1.25 1.22 1.18 1.12 1.14 1.21 1.15 1.15 1.20 1.22 1.29 1.23 1.24 1.20 1.13
0.44 0.45 0.46 0.50 0.54 0.57 0.61 0.62 0.62 0.63 0.64 0.63 0.64 0.65 0.68 0.74 0.82 0.81 0.77 0.77 0.77 0.66 0.65 0.77 0.85 0.73 1.24 1.30 1.17 1.14 1.15 1.12 1.08 1.17 1.20 1.13 1.21 1.20 1.26 1.26 1.27 1.27 1.21
0.46 0.47 0.50 0.53 0.56 0.59 0.62 0.64 0.64 0.64 0.68 0.70 0.69 0.70 0.76 0.80 0.77 0.68 0.68 0.78 0.78 0.81 0.90 0.91 0.78 0.74 1.29 1.35 1.17 0.99 1.06 1.08 1.07 1.09 1.16 1.10 1.17 1.21 1.26 1.25 1.26 1.30 1.29
0.47 0.49 0.51 0.53 0.55 0.58 0.61 0.62 0.64 0.65 0.67 0.71 0.72 0.73 0.77 0.78 0.67 0.61 0.67 0.73 0.72 0.68 0.79 0.89 1.03 1.18 1.28 1.30 1.16 1.10 1.15 1.10 1.13 1.16 1.20 1.16 1.21 1.22 1.28 1.26 1.28 1.32 1.32
0.47 0.48 0.49 0.51 0.54 0.57 0.60 0.62 0.63 0.66 0.68 0.70 0.73 0.75 0.75 0.75 0.74 0.73 0.71 0.71 0.73 0.77 0.84 0.87 0.94 1.04 1.15 1.23 1.20 1.23 1.18 1.14 1.17 1.25 1.25 1.24 1.24 1.23 1.22 1.25 1.27 1.25 1.21
0.45 0.46 0.48 0.50 0.53 0.55 0.58 0.61 0.62 0.64 0.66 0.68 0.69 0.70 0.73 0.75 0.78 0.79 0.76 0.72 0.73 0.77 0.91 0.96 1.04 1.08 1.10 1.18 1.19 1.18 1.11 1.08 1.11 1.13 1.13 1.14 1.13 1.15 1.22 1.25 1.14 1.13 1.18
0.44 0.46 0.47 0.49 0.51 0.52 0.54 0.56 0.59 0.61 0.64 0.65 0.65 0.68 0.72 0.74 0.77 0.79 0.80 0.84 0.77 0.78 0.91 0.95 0.92 0.93 1.04 1.07 1.16 1.08 1.07 1.07 1.02 1.02 1.03 1.05 1.09 1.12 1.20 1.22 1.19 1.18 1.10
0.42 0.41 0.42 0.44 0.46 0.47 0.50 0.51 0.53 0.58 0.62 0.63 0.65 0.67 0.69 0.70 0.74 0.76 0.76 0.80 0.79 0.82 0.84 0.85 0.89 0.93 0.95 0.98 1.00 1.08 1.02 1.01 0.99 0.98 0.97 1.02 1.09 1.13 1.12 1.13 1.15 1.13 1.10
0.34 0.32 0.32 0.30 0.31 0.32 0.34 0.37 0.40 0.43 0.47 0.51 0.56 0.63 0.65 0.67 0.69 0.71 0.73 0.74 0.73 0.77 0.79 0.80 0.82 0.84 0.86 0.84 0.91 1.00 0.96 0.91 0.97 0.97 1.01 1.00 1.00 1.00 1.03 1.03 1.01 1.01 1.01
0.28 0.26 0.26 0.24 0.24 0.23 0.22 0.22 0.23 0.24 0.26 0.28 0.32 0.36 0.43 0.49 0.55 0.62 0.68 0.71 0.70 0.73 0.75 0.75 0.76 0.75 0.79 0.81 0.86 0.85 0.84 0.84 0.89 0.87 0.90 0.92 0.91 0.93 0.94 0.96 0.93 0.93 0.94
0.24 0.21 0.21 0.21 0.19 0.19 0.19 0.17 0.16 0.18 0.18 0.21 0.20 0.22 0.23 0.25 0.30 0.37 0.39 0.43 0.47 0.54 0.59 0.64 0.67 0.71 0.72 0.75 0.80 0.78 0.81 0.79 0.81 0.81 0.83 0.83 0.82 0.83 0.87 0.87 0.84 0.83 0.86
0.20 0.19 0.18 0.16 0.16 0.17 0.16 0.15 0.15 0.16 0.19 0.19 0.19 0.16 0.17 0.18 0.20 0.22 0.24 0.26 0.27 0.27 0.29 0.33 0.36 0.40 0.46 0.52 0.59 0.67 0.69 0.71 0.72 0.72 0.75 0.77 0.77 0.78 0.80 0.80 0.79 0.78 0.82
0.18 0.16 0.15 0.14 0.16 0.16 0.15 0.15 0.15 0.17 0.18 0.18 0.18 0.18 0.17 0.16 0.15 0.15 0.17 0.19 0.20 0.21 0.20 0.22 0.22 0.24 0.27 0.30 0.33 0.36 0.39 0.45 0.46 0.50 0.58 0.62 0.66 0.68 0.71 0.74 0.75 0.76 0.77
0.17 0.17 0.14 0.14 0.15 0.15 0.16 0.14 0.16 0.18 0.16 0.17 0.17 0.17 0.19 0.18 0.17 0.15 0.14 0.14 0.15 0.16 0.17 0.17 0.18 0.19 0.21 0.23 0.24 0.25 0.29 0.32 0.32 0.34 0.36 0.38 0.41 0.46 0.48 0.51 0.58 0.62 0.63
0.15 0.15 0.14 0.13 0.14 0.16 0.15 0.16 0.16 0.17 0.18 0.16 0.18 0.18 0.18 0.18 0.18 0.17 0.16 0.14 0.13 0.13 0.13 0.14 0.14 0.15 0.16 0.18 0.21 0.21 0.22 0.26 0.26 0.28 0.29 0.30 0.31 0.32 0.34 0.35 0.37 0.39 0.42
0.14 0.14 0.13 0.13 0.14 0.15 0.15 0.16 0.17 0.17 0.17 0.17 0.17 0.18 0.18 0.18 0.19 0.18 0.18 0.16 0.16 0.15 0.13 0.13 0.14 0.13 0.13 0.15 0.18 0.18 0.17 0.19 0.22 0.22 0.21 0.21 0.22 0.24 0.26 0.27 0.29 0.31 0.32
0.13 0.12 0.13 0.12 0.13 0.14 0.14 0.15 0.16 0.16 0.16 0.17 0.17 0.17 0.17 0.17 0.17 0.17 0.18 0.20 0.20 0.18 0.16 0.15 0.14 0.15 0.15 0.15 0.15 0.16 0.16 0.16 0.16 0.15 0.15 0.15 0.16 0.17 0.18 0.20 0.22 0.25 0.27

GFSMW_prec_pwat_123.txt.gz
Precipitable_Water
0.45 0.47 0.46 0.47 0.46 0.47 0.46 0.46 0.46 0.48 0.48 0.48 0.46 0.48 0.50 0.63 0.81 0.94 1.24 1.53 1.53 1.61 1.71 1.41 1.46 1.48 1.42 1.32 1.28 1.25 1.18 1.16 1.23 1.10 1.08 1.11 1.15 1.21 1.27 1.26 1.23 1.21 1.21
0.44 0.44 0.44 0.45 0.44 0.43 0.44 0.44 0.43 0.43 0.44 0.46 0.46 0.47 0.46 0.51 0.63 0.81 0.92 1.15 1.34 1.49 1.44 1.43 1.48 1.50 1.38 1.34 1.35 1.22 1.15 1.17 1.25 1.02 0.99 0.86 1.03 1.15 1.22 1.25 1.23 1.22 1.23
0.42 0.44 0.43 0.43 0.43 0.41 0.42 0.42 0.43 0.44 0.45 0.47 0.48 0.47 0.49 0.48 0.47 0.59 0.75 0.92 1.09 1.31 1.45 1.49 1.51 1.38 1.51 1.27 1.28 1.31 1.17 1.07 1.20 1.16 0.95 0.82 0.71 0.89 1.11 1.18 1.23 1.21 1.23
0.46 0.45 0.43 0.42 0.41 0.42 0.44 0.45 0.45 0.46 0.47 0.48 0.47 0.46 0.43 0.41 0.45 0.46 0.59 0.73 0.92 1.03 1.22 1.41 1.43 1.35 1.54 1.39 1.25 1.32 1.27 1.25 1.08 1.20 1.10 1.00 0.87 0.75 0.74 1.08 1.14 1.18 1.15
0.45 0.45 0.45 0.46 0.47 0.48 0.47 0.47 0.46 0.45 0.45 0.47 0.49 0.47 0.45 0.47 0.47 0.47 0.44 0.56 0.73 0.89 1.00 1.20 1.35 1.50 1.50 1.55 1.46 1.25 1.30 1.36 1.23 1.07 0.99 1.03 0.98 0.95 0.83 0.75 0.92 1.15 1.18
0.44 0.45 0.46 0.46 0.44 0.45 0.44 0.43 0.42 0.42 0.45 0.46 0.47 0.47 0.47 0.46 0.45 0.45 0.44 0.44 0.51 0.75 0.89 0.98 1.15 1.32 1.45 1.46 1.44 1.54 1.46 1.38 1.45 1.26 1.14 1.03 0.93 0.86 0.90 0.82 0.91 0.94 1.07
0.43 0.42 0.41 0.41 0.41 0.42 0.42 0.43 0.44 0.44 0.46 0.46 0.47 0.48 0.47 0.47 0.47 0.46 0.47 0.48 0.45 0.47 0.74 0.90 0.98 1.11 1.24 1.32 1.41 1.45 1.51 1.64 1.37 1.37 1.24 1.17 1.09 1.05 1.06 0.99 0.91 0.93 1.06
0.43 0.42 0.42 0.42 0.42 0.43 0.45 0.47 0.46 0.47 0.50 0.52 0.53 0.54 0.53 0.50 0.50 0.50 0.51 0.52 0.52 0.50 0.50 0.73 0.92 1.04 1.17 1.17 1.24 1.34 1.43 1.55 1.42 1.30 1.34 1.29 1.15 1.10 1.10 1.04 0.96 0.86 0.95
0.41 0.41 0.41 0.41 0.44 0.46 0.47 0.50 0.52 0.53 0.54 0.57 0.57 0.58 0.58 0.55 0.52 0.52 0.53 0.56 0.58 0.56 0.55 0.54 0.62 0.89 0.96 1.05 1.19 1.19 1.25 1.36 1.39 1.29 1.27 1.45 1.21 1.14 1.14 1.14 1.07 0.91 0.79
0.41 0.41 0.42 0.44 0.47 0.49 0.52 0.57 0.57 0.57 0.59 0.61 0.62 0.61 0.63 0.63 0.61 0.57 0.54 0.56 0.60 0.63 0.62 0.58 0.55 0.60 0.82 0.89 1.02 1.15 1.25 1.30 1.38 1.37 1.39 1.36 1.26 1.17 1.16 1.14 1.14 1.08 0.96
0.40 0.41 0.44 0.47 0.51 0.55 0.58 0.59 0.61 0.63 0.65 0.67 0.68 0.67 0.65 0.66 0.65 0.63 0.65 0.68 0.70 0.74 0.75 0.70 0.66 0.60 0.67 0.86 0.85 0.95 1.17 1.38 1.40 1.44 1.27 1.13 1.19 1.14 1.17 1.18 1.18 1.13 1.05
0.42 0.45 0.48 0.51 0.54 0.56 0.59 0.61 0.62 0.63 0.65 0.67 0.68 0.67 0.66 0.67 0.68 0.70 0.75 0.80 0.79 0.85 0.80 0.79 0.78 0.73 0.73 0.74 0.79 0.70 0.72 0.97 1.20 1.31 1.20 1.09 1.17 1.12 1.19 1.18 1.15 1.14 1.17
0.45 0.48 0.49 0.50 0.53 0.55 0.57 0.58 0.60 0.61 0.63 0.64 0.64 0.66 0.68 0.70 0.73 0.75 0.70 0.67 0.67 0.68 0.71 0.73 0.75 0.69 0.72 0.64 0.69 0.71 0.74 0.90 1.11 1.29 1.22 1.12 1.15 1.15 1.21 1.24 1.12 1.15 1.19
0.46 0.47 0.48 0.50 0.51 0.53 0.54 0.56 0.58 0.61 0.62 0.62 0.62 0.62 0.66 0.71 0.75 0.73 0.71 0.68 0.69 0.68 0.66 0.65 0.68 0.68 0.65 0.71 0.77 0.78 0.97 1.01 1.12 1.25 1.28 1.16 1.15 1.14 1.22 1.24 1.17 1.14 1.13
0.45 0.46 0.47 0.48 0.50 0.50 0.53 0.55 0.57 0.59 0.61 0.60 0.61 0.62 0.65 0.70 0.72 0.72 0.73 0.72 0.72 0.72 0.74 0.73 0.67 0.69 0.74 0.78 0.86 0.94 0.95 1.02 1.08 1.15 1.08 1.02 1.05 1.11 1.16 1.23 1.19 1.21 1.15
0.42 0.42 0.42 0.42 0.43 0.45 0.47 0.50 0.54 0.57 0.60 0.60 0.61 0.63 0.65 0.68 0.68 0.71 0.72 0.75 0.76 0.77 0.77 0.76 0.75 0.76 0.81 0.85 0.93 0.94 0.95 1.06 0.98 1.05 1.04 0.97 1.10 1.10 1.15 1.11 1.12 1.13 1.12
0.36 0.32 0.28 0.28 0.28 0.30 0.30 0.31 0.33 0.36 0.40 0.48 0.56 0.60 0.62 0.63 0.65 0.67 0.69 0.71 0.71 0.71 0.74 0.74 0.77 0.78 0.81 0.85 0.87 0.89 0.90 0.93 0.96 0.98 0.96 1.02 0.96 1.03 1.04 1.08 1.02 1.05 1.06
0.29 0.25 0.23 0.23 0.22 0.23 0.22 0.21 0.22 0.21 0.21 0.22 0.27 0.34 0.40 0.45 0.51 0.57 0.61 0.64 0.66 0.66 0.67 0.69 0.72 0.75 0.76 0.82 0.84 0.86 0.86 0.86 0.88 0.91 0.94 0.90 0.91 0.98 0.95 0.98 0.98 0.96 1.00
0.24 0.22 0.22 0.20 0.19 0.18 0.18 0.17 0.17 0.17 0.18 0.16 0.16 0.19 0.22 0.26 0.29 0.31 0.34 0.40 0.44 0.48 0.53 0.57 0.61 0.65 0.69 0.75 0.76 0.79 0.79 0.80 0.80 0.86 0.84 0.85 0.80 0.87 0.93 0.88 0.88 0.91 0.92
0.20 0.19 0.19 0.19 0.17 0.17 0.18 0.16 0.16 0.16 0.17 0.18 0.16 0.16 0.16 0.16 0.19 0.23 0.24 0.26 0.26 0.28 0.29 0.30 0.34 0.39 0.42 0.50 0.54 0.61 0.65 0.69 0.70 0.74 0.76 0.78 0.81 0.78 0.80 0.85 0.84 0.82 0.81
0.17 0.17 0.16 0.15 0.16 0.17 0.16 0.15 0.16 0.16 0.18 0.18 0.19 0.17 0.16 0.15 0.14 0.15 0.17 0.18 0.19 0.20 0.21 0.23 0.25 0.28 0.31 0.33 0.36 0.37 0.39 0.43 0.46 0.49 0.54 0.60 0.65 0.69 0.73 0.75 0.75 0.75 0.78
0.16 0.15 0.13 0.14 0.15 0.16 0.16 0.15 0.15 0.18 0.18 0.18 0.18 0.17 0.17 0.16 0.15 0.14 0.14 0.14 0.14 0.14 0.15 0.16 0.17 0.19 0.22 0.25 0.26 0.29 0.32 0.34 0.32 0.33 0.37 0.38 0.40 0.43 0.45 0.50 0.56 0.62 0.65
0.15 0.14 0.13 0.14 0.15 0.15 0.15 0.15 0.17 0.18 0.17 0.17 0.17 0.17 0.17 0.17 0.16 0.15 0.14 0.14 0.13 0.13 0.13 0.13 0.14 0.15 0.17 0.19 0.21 0.21 0.24 0.25 0.25 0.27 0.30 0.32 0.33 0.33 0.35 0.36 0.37 0.40 0.42
0.15 0.15 0.13 0.13 0.13 0.15 0.15 0.16 0.17 0.18 0.18 0.16 0.17 0.18 0.18 0.17 0.17 0.17 0.16 0.15 0.14 0.13 0.12 0.12 0.13 0.13 0.14 0.15 0.18 0.18 0.18 0.18 0.18 0.19 0.19 0.21 0.22 0.23 0.25 0.28 0.29 0.32 0.34
0.14 0.13 0.13 0.13 0.13 0.14 0.14 0.15 0.16 0.17 0.18 0.18 0.17 0.17 0.18 0.17 0.18 0.19 0.18 0.17 0.17 0.16 0.13 0.13 0.14 0.14 0.13 0.15 0.17 0.16 0.15 0.15 0.15 0.15 0.15 0.14 0.15 0.14 0.16 0.18 0.20 0.23 0.26
0.13 0.12 0.13 0.12 0.12 0.14 0.14 0.16 0.15 0.15 0.16 0.16 0.16 0.15 0.16 0.16 0.16 0.15 0.15 0.20 0.19 0.18 0.17 0.14 0.15 0.16 0.16 0.15 0.14 0.14 0.14 0.14 0.14 0.11 0.10 0.11 0.12 0.12 0.13 0.13 0.14 0.16 0.17